Weather in Plunge

Lithuania     55°54′37″N   21°50′47″E
temp.,
°C
wind,
m/s
gust,
m/s
humid.,
%
clouds,
%
prec.,
mm/h
press.,
hPa
HPBL,
m
27 february, sat
sat2723:00+2wnw48910 0.0 1017199
02:00+3nw4129023 0.0 1019455
05:00+1nw6149015 0.0 1020486
08:00+1nnw514918 0.0 1023492
11:00+4nnw612761 0.0 1025699
14:00+6nnw711610 0.0 1027959
17:00+4nnw510700 0.0 1028624
20:000nw37920 0.0 1029195
28 february, sun
sun2823:000wnw379559 0.0 1029207
02:00+1w359179 0.0 1029123
05:00+2w378556 0.0 1027204
08:00+1w498876 0.0 1026202
11:00+5wnw487474 0.0 1026374
14:00+7nnw6116980 0.0 1027965
17:00+5nnw5107873 0.0 1026514
20:00+3nnw4109038 0.0 1028289
1 march, mon
mon123:00+2nw39930 0.0 1029223
02:00+1nw37940 0.0 1031156
05:00+1nw23920 0.0 103039
08:00+2w35910 0.0 103195
11:00+7w59740 0.0 1029372
14:00+8wsw611662 0.0 1028502
17:00+5w7128333 0.0 1027560
20:00+2w499336 0.0 1027271
2 march, tue
tue223:00+1wnw34930 0.0 102893
02:00+1wnw23908 0.0 102932
05:00+1wsw23881 0.0 102832
08:00+1w23870 0.0 102846
11:00+6wsw34700 0.0 1028266
14:00+8w46671 0.0 1028410
17:00+6w35780 0.0 1028278
20:00+2w23930 0.0 102862
3 march, wed
wed323:00+1w12920 0.0 102922
02:00+1sw129111 0.0 102922
05:000sw239533 0.0 102862
08:00+1sw349743 0.0 1028202
11:00+1ssw3492100 0.0 1028267
14:00+3ssw468398 0.0 1026406
17:00+3sw468991 0.0 1024465
20:000ssw379774 0.0 1022170